Location: North Evanston
(42.0634°N, 87.6976°W)
Time: 12:08:00
(UTC+00:00)

Vanguard 2 Rocket - Pass Details

Date: 11 May 2026
Orbit: 553 x 3286 km, 32.9° (Epoch: 11 June)

Event Time Altitude Azimuth Distance (km) Brightness Sun altitude
Rises 19:39:21 0° 257° (WSW) 6,339 11.7 56.2°
Reaches altitude 10° 19:43:09 10° 255° (WSW) 5,590 11.6 55.6°
Maximum altitude 20:01:16 64° 179° (S) 3,509 11.0 52.8°
Drops below altitude 10° 20:19:58 10° 104° (ESE) 5,749 10.8 49.7°
Sets 20:23:57 0° 102° (ESE) 6,520 10.9 49.0°
